Regional Weather Roundup
Issued by NWS

Home | Current Version | Previous Version | Text Only | Print | Product List | Glossary On
Versions: 1 2 3 4 5 6 7 8 9 10 11 12 13 14 15 16 17 18 19 20 21 22 23 24 25 26 27 28 29 30 31 32 33 34 35 36 37 38 39 40 41 42 43 44 45 46 47 48 49 50
633
ASUS45 KSLC 021910
RWRUT

UTAH REGIONAL WEATHER ROUNDUP
NATIONAL WEATHER SERVICE SALT LAKE CITY UT
100 PM MDT MON MAY 02 2016

UTZ001>011-023>025-022000-

NORTHERN UTAH

CITY           SKY/WX    TMP DP  RH WIND       PRES   REMARKS
BRIGHAM CITY     N/A     61  28  28 CALM      30.22F
HILL AFB         N/A     59  29  32 S3        30.22F
LOGAN            N/A     60  30  32 VRB3      30.23F
OGDEN            N/A     64  28  25 VRB7      30.21F
PROVO AIRPORT  MOSUNNY   63  32  31 W9        30.21F
SALT LAKE CITY   N/A     65  28  24 W7        30.20F
VERNAL         SUNNY     56  26  31 CALM      30.23F
WENDOVER         N/A     59  36  41 SE8       30.23F
HEBER CITY       N/A     57  28  33 CALM      30.21F

$$

UTZ012>022-026-027-022000-

SOUTHERN/CENTRAL UTAH

CITY           SKY/WX    TMP DP  RH WIND       PRES   REMARKS
BLANDING         N/A     50  37  60 CALM      30.33F
BRYCE CANYON   CLOUDY    47  33  58 SE12      30.27S
CEDAR CITY     PTSUNNY   58  34  40 CALM      30.19F
DELTA          PTSUNNY   61  32  33 SW5       30.21F
HANKSVILLE     PTSUNNY   61  36  39 NE7       30.23F
MILFORD        PTSUNNY   59  32  36 E6        30.19F
MOAB/CYNLANDS    N/A     62  37  39 CALM      30.19F
PRICE            N/A     57  32  38 CALM      30.22F
ST GEORGE        N/A     70  41  35 N5        30.15F
KANAB            N/A     63  37  39 NE7       30.22F

$$

REGIONAL REPORTS     COLORADO/ARIZONA

CITY           SKY/WX    TMP DP  RH WIND       PRES   REMARKS
CRAIG, CO      SUNNY     55  27  34 W12       30.24F
GRAND JUNCTION PTSUNNY   60  36  40 NW7       30.20F
RIFLE          MOSUNNY   59  31  34 VRB3      30.20F
MONTROSE       SUNNY     57  34  41 VRB5      30.24F
CORTEZ         SUNNY     55  35  47 MISG      30.24F
PAGE, AZ       CLOUDY    61  40  45 NE5       30.20F
GRAND CANYON   CLOUDY    54  36  50 NE13      30.23F
KINGMAN          N/A     72  35  25 N13       30.11F
FLAGSTAFF        N/A     49  38  65 E10       30.23F

$$

REGIONAL REPORTS    NEVADA/IDAHO/WYOMING

CITY           SKY/WX    TMP DP  RH WIND       PRES   REMARKS
LAS VEGAS, NV    N/A     74  38  27 E6        30.06F
ELY            CLOUDY    55  30  38 SE5       30.23S
ELKO             N/A     60  34  37 CALM      30.20S
POCATELLO, ID  MOSUNNY   62  26  25 SE5       30.23F
BURLEY           N/A     62  31  31 E5        30.20F
EVANSTON, WY   SUNNY     52  21  29 VRB6      30.27F
ROCK SPRINGS   SUNNY     47  21  35 W7        30.27F
KEMMERER         N/A     46  19  34 SW6       30.30S

$$




USA.gov is the U.S. government's official web portal to all federal, state and local government web resources and services.